Regional Weather Roundup
Issued by NWS

Home | Current Version | Previous Version | Graphics & Text | Print | Product List | Glossary Off
Versions: 1 2 3 4 5 6 7 8 9 10 11 12 13 14 15 16 17 18 19 20 21 22 23 24 25 26 27 28 29 30 31 32 33 34 35 36 37 38 39 40 41 42 43 44 45 46 47 48 49 50

000
ASUS43 KTOP 060508
RWRKS

WEATHER ROUNDUP FOR KANSAS
NATIONAL WEATHER SERVICE GOODLAND KS
1200 AM CDT WED MAY 06 2015

NOTE:  "FAIR" INDICATES FEW OR NO CLOUDS BELOW 12,000 FEET WITH NO
SIGNIFICANT WEATHER AND/OR OBSTRUCTIONS TO VISIBILITY.

KSZ001>006-013>018-027>032-041>047-060600-
NORTHWEST KANSAS

CITY           SKY/WX    TMP DP  RH WIND       PRES   REMARKS
GOODLAND       MOCLDY    52  51  97 S17       29.76F
HAYS           CLOUDY    63  55  77 SE17G25   29.87S
HILL CITY      CLOUDY    62  59  90 S13       29.84S
RUSSELL        LGT RAIN  62  60  93 SE15      29.87F
$$

KSZ061>065-074>080-084>089-060600-
SOUTHWEST KANSAS

CITY           SKY/WX    TMP DP  RH WIND       PRES   REMARKS
DODGE CITY     LGT RAIN  60  58  92 SE12      29.83F FOG
ELKHART          N/A     52  46  80 S8          N/A
GARDEN CITY    MOCLDY    52  52 100 E9        29.78F
GREAT BEND     CLOUDY    63  57  82 SE20G28   29.87F
LIBERAL        PTCLDY    54  50  87 SE8       29.81F
PRATT          CLOUDY    61  59  94 SE13      29.87F
$$

KSZ066>073-081>083-090>101-060600-
SOUTHEAST KANSAS

CITY           SKY/WX    TMP DP  RH WIND       PRES   REMARKS
CHANUTE        CLOUDY    68  64  87 SE8       29.99F
COFFEYVILLE    LGT RAIN  67  62  84 S7        29.98F
HUTCHINSON     LGT RAIN  64  61  90 SE18G25   29.90F
MEDICINE LODGE   N/A     63  62  97 SE8G23    29.84F
NEWTON         CLOUDY    63  57  82 SE25G31   29.95F
PARSONS        CLOUDY    68  65  90 SE8       30.00S
WICHITA INTL   RAIN      64  62  93 SE17G28   29.91F FOG
WICHITA JABRA  HVY RAIN  63  63 100 SE17      29.93F
WICHITA MCCONL LGT RAIN  64  62  93 E15G24    29.92F
WINFIELD       LGT RAIN  64  63  96 SE14      29.93F
$$

KSZ007>012-019>026-033>040-048>060-102>105-060600-
NORTHEAST KANSAS

CITY           SKY/WX    TMP DP  RH WIND       PRES   REMARKS
CONCORDIA      CLOUDY    64  57  78 SE12      29.93F
EMPORIA        LGT RAIN  64  63  96 SE8       29.98F
LAWRENCE       CLOUDY    66  62  87 SW8       30.03R
MANHATTAN      CLOUDY    67  63  87 S14       29.96F
MARYSVILLE     CLOUDY    64  61  88 SE13      29.97S
OLATHE IND     CLOUDY    68  61  78 SE13      30.02F
OLATHE EXE     CLOUDY    66  63  90 SE8       30.02F
SALINA         CLOUDY    65  58  78 SE17      29.93S
TOPEKA BILLARD LGT RAIN  65  64  97 SE6       30.02F FOG
TOPEKA FORBES  LGT RAIN  65  63  93 SE7       30.01S
$$


USA.gov is the U.S. government's official web portal to all federal, state and local government web resources and services.